Zurück zum Katalog

STARLINK-3922

AktivKommunikationVLEO
NORAD 52584·PAYLOAD·🇺🇸 United States

Gestartet May 13, 2022 von Vandenberg Space Force Base

Loading…

Nächste Überflüge (nächste 24 Stunden)

TLE

AktuellSource: CelesTrak SupGP

Epoche: Sep 14, 2026, 20:31 UTC

1 52584C 22051BA  26257.85534722 -.00039237  00000+0 -11227-2 0  2579
2 52584  53.1590 343.8736 0001238  81.4359 163.0132 15.35416531    18

Verfolge STARLINK-3922 in Echtzeit mit AllMySat

Download on the App Store